Flag for Brazil Weather past 2 weeks in Belém, Para, Brazil

Now
81 °F

Broken clouds.


Feels Like: 86 °F
Forecast: N/A
Wind: 3 mph from Northeast

Location: Belem Aeroporto

Current Time: Oct 23, 2014 at 7:03:29 PM

Latest Report: Oct 23, 2014 at 6:00 PM


Visibility: N/A

Pressure: 29.80 "Hg

Humidity: 84%

Dew point: 75 °F

Location of BelémLocation

Historic Weather in Belém — Graph

°F

Belém temperature yesterday

Maximum temperature yesterday: 86 °F (at 10:00 AM)
Minimum temperature yesterday: 73 °F (at 5:00 PM)
Average temperature yesterday: 79 °F

Past Weeks' High & Low Weather Summary

 TemperatureHumidityPressure
High91 °F (Oct 10, 1:00 PM)100% (Oct 9, 5:00 AM)32.55 "Hg (Oct 9, 5:00 AM)
Low72 °F (Oct 20, 2:00 AM)52% (Oct 18, 2:00 PM)29.77 "Hg (Oct 8, 5:00 PM)
Average80 °F81%29.88 "Hg
* Reported Oct 8 5:00 PM — Oct 23 5:00 PM, Belém, Weather by CustomWeather, © 2014

Note: Actual official high and low records may vary slightly from our data, if they occured in-between our weather recording intervals... More about our weather records

Advertising

Belém weather history for previous 24 hours

 ConditionsComfort  
Time TempWeatherWind HumidityBarometerVisibility
5:00 PM
Oct 23
81 °FLight rain. Partly sunny.6 mph84%N/AN/A
4:00 PM75 °FLight rain. Broken clouds.3 mph89%N/A2 mi
3:00 PM84 °FPartly sunny.6 mph74%29.83 "HgN/A
2:00 PM88 °FPartly sunny.6 mph59%29.83 "HgN/A
1:00 PM86 °FPartly sunny.12 mph62%29.89 "HgN/A
12:00 PM86 °FPartly sunny.13 mph62%29.92 "HgN/A
11:00 AM84 °FPartly sunny.13 mph70%29.92 "HgN/A
10:00 AM82 °FPartly sunny.9 mph74%29.95 "HgN/A
9:00 AM82 °FScattered clouds.10 mph74%29.92 "HgN/A
8:00 AM79 °FSunny.12 mph84%29.92 "Hg10 mi
7:00 AM75 °FSunny.3 mph89%29.89 "Hg10 mi
6:00 AM75 °FClear.5 mph89%29.86 "Hg10 mi
5:00 AM73 °FClear.3 mph94%29.86 "Hg10 mi
4:00 AM75 °FClear.5 mph89%29.86 "Hg10 mi
3:00 AM75 °FClear.6 mph89%29.86 "Hg10 mi
2:00 AM75 °FClear.6 mph89%29.86 "Hg10 mi
1:00 AM77 °FClear.7 mph89%29.89 "Hg10 mi
12:00 AM77 °FClear.6 mph89%29.92 "Hg10 mi
11:00 PM
Oct 22
77 °FClear.5 mph89%29.95 "Hg10 mi
10:00 PM77 °FClear.6 mph89%29.95 "Hg10 mi
9:00 PM77 °FClear.5 mph94%29.92 "Hg10 mi
8:00 PM77 °FClear.3 mph94%29.86 "Hg10 mi
7:00 PM75 °FPartly sunny.1 mph94%29.83 "HgN/A
Weather by CustomWeather, © 2014

See weather overviewHow to use our weather pages